Laramie, WY

8:34 PM MDT on May 29, 2017 (GMT -0600)
Laramie Regional

Weather History for KLAR - November, 2012

Change the Weather History Date:

Monday, November 19, 2012

  Actual Average Record
Temperature  
Mean Temperature 40 °F 28 °F  
Max Temperature 50 °F 39 °F 64 °F (2007)
Min Temperature 29 °F 16 °F -7 °F (2009)
Degree Days  
Heating Degree Days 25 37  
Month to date heating degree days 518 630  
Since 1 July heating degree days 1583 1873  
Cooling Degree Days 0 0  
Month to date cooling degree days 0 0  
Year to date cooling degree days 211 67  
Moisture  
Dew Point 25 °F    
Average Humidity 63    
Maximum Humidity 89    
Minimum Humidity 36    
Precipitation  
Precipitation 0.00 in 0.01 in 0.39 in (1973)
Month to date precipitation 0.16 0.37  
Year to date precipitation 6.06 10.43  
Sea Level Pressure  
Sea Level Pressure 30.15 in    
Wind  
Wind Speed 11 mph (SW)    
Max Wind Speed 21 mph    
Max Gust Speed 25 mph    
Visibility 10 miles    
Events      
T = Trace of Precipitation, MM = Missing Value Source: NWS Daily Summary

Daily Weather History Graph

Daily Weather History Graph

Search for Another Location

Airport or City:

Trip Planner

Search our weather history database for the weather conditions in past years. The results will help you decide how hot, cold, wet, or windy it might be!

Date:

Astronomy

Nov. 19, 2012 Rise Set
Actual Time 6:56 AM MST 4:39 PM MST
Civil Twilight 6:26 AM MST 5:09 PM MST
Nautical Twilight 5:52 AM MST 5:43 PM MST
Astronomical Twilight 5:19 AM MST 6:16 PM MST
Moon 11:59 AM MST (11/19) 11:11 PM MST (11/19)
Length of Visible Light 10h 43m
Length of Day
9h 43m
Waxing Crescent, 41% of the Moon is Illuminated
Nov 19
Waxing Crescent
Nov 20
First Quarter
Nov 28
Full
Dec 6
Last Quarter
Dec 13
New

Hourly Weather History & Observations

Time (MST) Temp. Windchill Dew Point Humidity Pressure Visibility Wind Dir Wind Speed Gust Speed Precip Events Conditions
12:53 AM 32.0 °F 26.4 °F 28.9 °F 88% 30.06 in 10.0 mi West 5.8 mph - N/A   Scattered Clouds
1:53 AM 33.1 °F 27.7 °F 28.0 °F 82% 30.06 in 10.0 mi WSW 5.8 mph - N/A   Mostly Cloudy
2:53 AM 34.0 °F 23.8 °F 28.0 °F 79% 30.06 in 10.0 mi SW 16.1 mph - N/A   Scattered Clouds
3:53 AM 32.0 °F 23.0 °F 25.0 °F 75% 30.09 in 10.0 mi SW 11.5 mph - N/A   Clear
5:53 AM 35.1 °F 25.9 °F 27.0 °F 72% 30.17 in 10.0 mi SW 13.8 mph - N/A   Clear
6:53 AM 32.0 °F 25.6 °F 26.1 °F 79% 30.19 in 10.0 mi SSW 6.9 mph - N/A   Clear
7:53 AM 34.0 °F 26.0 °F 28.0 °F 79% 30.20 in 10.0 mi WSW 10.4 mph - N/A   Clear
8:53 AM 37.9 °F 29.6 °F 28.9 °F 70% 30.18 in 10.0 mi WSW 13.8 mph - N/A   Clear
9:53 AM 41.0 °F 33.1 °F 28.0 °F 60% 30.18 in 10.0 mi WSW 15.0 mph - N/A   Clear
10:53 AM 46.9 °F - 25.0 °F 42% 30.14 in 10.0 mi WSW 18.4 mph - N/A   Clear
12:53 PM 46.9 °F - 24.1 °F 41% 30.14 in 10.0 mi West 9.2 mph - N/A   Clear
1:53 PM 46.9 °F - 23.0 °F 39% 30.13 in 10.0 mi West 6.9 mph - N/A   Scattered Clouds
2:53 PM 48.9 °F - 23.0 °F 36% 30.11 in 10.0 mi West 10.4 mph - N/A   Clear
3:53 PM 46.9 °F - 21.9 °F 37% 30.14 in 10.0 mi West 9.2 mph - N/A   Clear
4:53 PM 39.0 °F 31.8 °F 21.0 °F 49% 30.18 in 10.0 mi WSW 11.5 mph - N/A   Clear
5:53 PM 36.0 °F 28.0 °F 21.0 °F 55% 30.20 in 10.0 mi WSW 11.5 mph - N/A   Clear
6:53 PM 34.0 °F 28.0 °F 21.0 °F 59% 30.25 in 10.0 mi South 6.9 mph - N/A   Clear
7:53 PM 33.1 °F 24.9 °F 21.9 °F 64% 30.25 in 10.0 mi SSW 10.4 mph - N/A   Clear
8:53 PM 36.0 °F 26.0 °F 24.1 °F 62% 30.19 in 10.0 mi SW 17.3 mph - N/A   Clear
9:53 PM 35.1 °F 26.9 °F 23.0 °F 61% 30.19 in 10.0 mi SSW 11.5 mph - N/A   Clear
10:53 PM 35.1 °F 25.9 °F 23.0 °F 61% 30.15 in 10.0 mi SSW 13.8 mph - N/A   Clear
11:53 PM 36.0 °F 27.1 °F 23.0 °F 59% 30.15 in 10.0 mi SW 13.8 mph - N/A   Clear